Location: Drocourt
(49.0571°N, 1.7669°E)
Time: 23:46:24
(UTC+00:00)

SR - Pass Details

Date: 21 April 2024
Orbit: 579 x 859 km, 66.7° (Epoch: 25 May)

Event Time Altitude Azimuth Distance (km) Brightness Sun altitude
Rises 23:45:00 0° 162° (SSE) 3,352 - -28.6°
Reaches altitude 10° 23:48:29 10° 141° (SE) 2,380 - -28.6°
Maximum altitude 23:51:32 15° 107° (ESE) 1,992 - -28.6°
Exits shadow 23:53:03 14° 88° (E) 2,066 ? -28.6°
Drops below altitude 10° 23:54:29 10° 72° (ENE) 2,292 ? -28.6°
Sets 23:57:44 0° 50° (NE) 3,160 ? -28.6°
